Regional Weather Roundup
Issued by NWS

Home | Current Version | Previous Version | Graphics & Text | Print | Product List | Glossary On
Versions: 1 2 3 4 5 6 7 8 9 10 11 12 13 14 15 16 17 18 19 20 21 22 23 24 25 26 27 28 29 30 31 32 33 34 35 36 37 38 39 40 41 42 43 44 45 46 47 48 49 50
000
ASUS43 KLSX 212157
RWRMO

WEATHER SUMMARY FOR MISSOURI
NATIONAL WEATHER SERVICE SPRINGFIELD MO
400 PM CST TUE FEB 21 2017

NOTE: "FAIR" INDICATES FEW OR NO CLOUDS BELOW 12,000 FEET WITH NO
       SIGNIFICANT WEATHER AND/OR OBSTRUCTIONS TO VISIBILITY.
       CURRENT SKY AND/OR WEATHER CONDITIONS ARE NOT AVAILABLE FOR
       CHILLICOTHE AND FARMINGTON.

MOZ001>031-035>038-043-044-053-054-212300-
...NORTHERN AND WESTERN MISSOURI...

CITY           SKY/WX    TMP DP  RH WIND       PRES   REMARKS
KANSAS CTY INT MOSUNNY   70  36  28 VRB3      29.90F
LEE`S SUMMIT   SUNNY     71  47  42 VRB3      29.90F
ST JOSEPH      SUNNY     69  31  24 W6        29.90F
CHILLICOTHE      N/A     73  44  35 W6        29.90F

$$
MOZ066>068-077>081-088>096-101>105-212300-
...SOUTHWEST MISSOURI...

CITY           SKY/WX    TMP DP  RH WIND       PRES   REMARKS
SPRINGFIELD    CLOUDY    61  58  90 E6        29.89S
JOPLIN         SUNNY     70  53  54 N12       29.90F
BRANSON        CLOUDY    57  57 100 N6        29.89S

$$
MOZ032>034-039>042-045>050-055>058-069>072-212300-
...CENTRAL MISSOURI...

CITY           SKY/WX    TMP DP  RH WIND       PRES   REMARKS
COLUMBIA       NOT AVBL
JEFFERSON CITY PTSUNNY   67  57  70 E8        29.88F
ROLLA          CLOUDY    61  59  93 NE5       29.90R
SEDALIA        PTSUNNY   72  51  47 NW6       29.90R
WARRENSBURG    SUNNY     70  48  46 W3        29.89F

$$
MOZ051-052-059>065-212300-
...EAST CENTRAL MISSOURI...

CITY           SKY/WX    TMP DP  RH WIND       PRES   REMARKS
ST LOUIS INTL  CLOUDY    67  55  65 SE3       29.90S

$$
MOZ072>076-082>087-097>100-106>115-212300-
...SOUTH CENTRAL AND SOUTHEAST MISSOURI...

CITY           SKY/WX    TMP DP  RH WIND       PRES   REMARKS
CAPE GIRARDEAU CLOUDY    62  56  80 SE5       29.88S
POPLAR BLUFF   CLOUDY    61  59  93 E6        29.87R
WEST PLAINS    CLOUDY    58  56  93 NE6       29.89R FOG

$$



USA.gov is the U.S. government's official web portal to all federal, state and local government web resources and services.